Погода Bilogora

Погода Bilogora : погода сейчас, прогноз погоды и архив. Всё, что Вы хотите узнать о погоде Bilogora!

Поиск расширенной информации на нашем сайте:

Другие новости

Новости СМИ2

Главная страница сайта

Новости сайта

03.07.2017

Напоминаем, что на нашем специализированном сайте Метеоцентр.Азия вы можете получить высокодетализированные автоматические прогнозы погоды по пунктам России, СНГ и мира в авиационном формате (включающие направление и скорость ветра, видимость, явления погоды, количество и форму облачности, нижнюю и верхнюю границу облачности).


Погода Bilogora - сегодня

Время (UTC), дата Ветер
(°,м/с) 
Видим.   Явления Облачность Т
(°С)
Тd
(°С)
f(%) Тe
(°С)
Pmin
(гПа)
dP
(гПа)
Po
(мм)
O2
(г/м3)
Тmin Tmax R s Состояние
почвы
00 08.02.18 290 (З) 0100 м  снег{туман}  ?/?  
+0 +0 100 -3  1009.7  0.6  733  295           
03 08.02.18 300 (СЗ) 0700 м  слаб. снег{туман}  ?/?  
-0.1 -0.1 100 -4  1010.1  0.4  733  295           
06 08.02.18 280 (З) 2000 м  слаб. снег{туман}  10/8 600 м средняя 
[Frnb|As op]
-0.2 -0.2 100 -4  1012  1.8  735  296  -0.3    16  17  равномерный
мокрый или
старый снег
100% 
12 08.02.18 300 (СЗ) 4000 м  снег  10/5 600 м средняя 
[Frnb|As op]
+0.6 +0.4 99 -3  1015.7  1.7  737  296           
18 08.02.18 310 (СЗ) 5000 м  дымка{снег}  10/6 600 м средняя 
[St|As op]
+1.6 -0.4 87 -1  1018.4  1.7  739  296    +1.6  10  равномерный
мокрый или
старый снег
100% 
00 09.02.18 310 (СЗ) 10 км    10/4 600 м средняя 
[St|As op]
+1.1 -0.6 88 -1  1019.6  0.4  740  297           
03 09.02.18 330 (СЗ) 8000 м  дымка  10/10 600 м 
[St]
+0.6 -1.4 86 1019.8  0.1  740  298           
06 09.02.18 320 (СЗ) 2000 м  дымка  10/6 600 м средняя 
[Sc|As op]
+0.6 -1.4 86 1019.7  0.1  740  298  +0.6      10  равномерный
мокрый или
старый снег
100% 
09 09.02.18 030 (СВ) 2000 м  дымка  10/5 600 м средняя 
[St|As op]
+1.4 -2.5 75 +2  1019.8  -0.2  740  297           
12 09.02.18 тихо ()   4000 м  дымка  10/6 600 м средняя 
[St|As op]
+2.2 -1.6 76 +2  1019  -0.7  740  296           
18 09.02.18 090 (В) 2000 м  дымка  ясно 
+1.1 -0.6 88 1017.2  -0.4  738  296    +4.1    равномерный
мокрый или
старый снег
100% 
12 27.02.18 340 (С) 0700 м  слаб. снег{туман}  ?/?  
-7.7 -8.7 93 -12  1012.4  0.3  734  305         
12 26.03.18 120 (ЮВ) 15000 м    10/3 600 м средняя 
[Sc|As op]
+6.9 +1.6 69 +6  1012.5  0.3  736  289           
03 07.04.18 340 (С) 20000 м    3/0 средняя 
[Ac trans]
+5 +0.9 75 +3  1023.2  -0.5  743  294           
00 11.04.18 230 (ЮЗ) 20000 м    3/0 верхняя 
[Ci sp]
+11.3 +4.3 62 +12  1011.1  0.1  735  284           
06 25.04.18 210 (ЮЗ) 15000 м    3/0 верхняя 
[Ci fib]
+15.5 +13 85 +22  1015.7  0.3  739  279  +14.2        сухая 
21 06.05.18 340 (С) 35000 м    4/3 1000 м средняя, верхняя 
[Sc diur, vesp|Ac trans|Ci sp]
+19.6 +11 58 +23  1016.7  740  276    +22.8       
15 21.05.18 070 (В) 50000 м    3/3 600 м верхняя 
[Cu hum|Ci sp]
+24 +10 41 +25  1014.3  -2.2  738  272           
15 06.06.18 300 (СЗ) 30000 м    4/3 600 м средняя, верхняя 
[Cu med, cong|Ac cuf|Ci sp]
+29 +15.8 45 +40  1011.8  -0.1  737  265           
15 14.06.18 350 (С) 5000 м  слаб. морось{дождь}  10/5 300 м средняя 
[Frnb|As op]
+14.2 +13.3 94 +20  1011.5  0.2  736  279           
09 12.08.18 070 (В) 35000 м    ясно 
+25.9 +14.7 50 +34  1020.2  -0.2  743  270           
09 18.08.18 050 (СВ) 20000 м    ясно 
+26 +17.5 59 +40  1017.3  0.4  741  269           
09 21.08.18 330 (СЗ) 30000 м    ясно 
+26.1 +16.9 57 +39  1017.4  0.8  741  269           
00 07.09.18 330 (СЗ) 20000 м    ясно 
+17.4 +13.5 78 +25  1011.5  -0.2  736  276           
03 23.09.18 110 (В) 40000 м    10/4 600 м средняя 
[Sc|As op]
+11.8 +9.6 86 +14  1022.4  -0.6  743  285           
Время (UTC), дата Ветер
(°,м/с) 
Видим.   Явления Облачность Т
(°С)
Тd
(°С)
f(%) Тe
(°С)
Pmin
(гПа)
dP
(гПа)
Po
(мм)
O2
(г/м3)
Тmin Tmax R s Состояние
почвы

Для получения пояснительной информации подведите курсор к названию столбца.

ПОГОДА Bilogora - архив

Всё, что Вы хотите узнать о погоде Bilogora - удобно и подробно!

Выберите нужную дату (начиная с 1 января 2015* года) и нажмите кнопку "Найти".
Будут отображены архивные сводки погоды по пункту Bilogora, начиная с указанной даты.


Отображать данные в формате CSV (для использования в таблицах Excel)


Внимание! Наш архив погоды предназначен исключительно для личного некоммерческого использования в познавательных целях. Если Вам необходимы официальные справки о состоянии погоды (для производственных, юридических, коммерческих и т.п. целей), обращайтесь в органы Росгидромета.

*Примечание: данная дата относится к архиву по метеостанциям СССР (Россия, СНГ, Балтия).
Архив по метеостанциям Зарубежной Европы и Азии (кроме Китая) хранится 10 дней, по другим регионам земного шара (Китай, Африка, Америка, Австралия, Океания) - 1 день.

Bilogora - район местоположения метеостанции


Название, широта, долгота, высота метеостанции:
Bilogora 45.9°ш. 17.2°д. 263 м над ур. моря [Croatia]

Дополнительная информация

В oтличие oт бoльшинства пoгoдных сайтoв мы публикуем пoдрoбную метеoинфoрмацию в детальнoм прoфессиoнальнoм фoрмате.

Характеристики температуры и влажнoсти вoздуха измеряются на высoте 2 м в тени вдали oт зданий и деревьев.
Скoрoсть ветра измеряется на высoте 10 м (на урoвне рoста челoвека скoрoсть ветра ниже в 1.5-2 раза). Если метеoстанция нахoдится в гoрoде или в лесу, тo скoрoсть ветра занижена на 2-4 м/с пo сравнению с oткрытым местoм. Скoрoсть ветра над акватoриями крупных рек и oзёр, а также на вершинах хoлмoв на 2-5 м/с выше, чем в oбычных услoвиях.
Атмoсфернoе давление в разных тoчках местнoсти мoжет значительнo oтличаться oт давления на метеoстанции, в зависимoсти oт услoвий рельефа (при пoдъёме на 10 м давление пoнижается примернo на 1 мм рт.ст.).